E24OWX-1 Weather Reports


Display with metric or nautical units.
time (UTC)temp
F
wind
direction
speed
MPH
gust
MPH
rain 1hr
in
rain 24hr
in
rain mn
in
humidity
%
barometer
mb
20260504183026 85 0 0.0 0.0 0.00 0.00 0.00 99 1009.0
20260504181504 86 0 0.0 0.0 0.00 0.00 0.00 99 1009.0
20260504175942 87 0 0.0 0.0 0.00 0.00 0.00 99 1008.0
20260504174420 87 0 0.0 0.0 0.00 0.00 0.00 99 1008.0
20260504172858 87 0 0.0 0.0 0.00 0.00 0.00 99 1009.0
20260504171336 87 0 0.0 0.0 0.00 0.00 0.00 99 1009.0
20260504151040 89 0 0.0 0.0 0.00 0.00 0.00 99 1009.0
20260504140912 90 0 0.0 0.0 0.00 0.00 0.00 99 1008.0
20260504140104 90 0 0.0 0.0 0.00 0.00 0.00 99 1007.0
20260504110426 93 0 0.0 0.0 0.00 0.00 0.00 99 1005.0
20260504100254 94 0 0.0 0.0 0.00 0.00 0.00 99 1004.0
20260504090121 96 0 0.0 0.0 0.00 0.00 0.00 99 1004.0
20260504080803 102 0 0.0 0.0 0.00 0.00 0.00 81 1004.0
20260504050340 101 0 0.0 0.0 0.00 0.00 0.00 87 1008.0
20260504044818 100 0 0.0 0.0 0.00 0.00 0.00 90 1008.0
20260504043255 100 0 0.0 0.0 0.00 0.00 0.00 92 1008.0
20260504041734 99 0 0.0 0.0 0.00 0.00 0.00 96 1008.0
20260504040211 99 0 0.0 0.0 0.00 0.00 0.00 96 1009.0
20260504034649 99 0 0.0 0.0 0.00 0.00 0.00 99 1009.0
20260504033127 98 0 0.0 0.0 0.00 0.00 0.00 99 1009.0
20260504031605 97 0 0.0 0.0 0.00 0.00 0.00 99 1009.0
20260504030043 97 0 0.0 0.0 0.00 0.00 0.00 99 1009.0
20260504024521 96 0 0.0 0.0 0.00 0.00 0.00 99 1009.0
20260504022959 95 0 0.0 0.0 0.00 0.00 0.00 99 1009.0
20260504021437 94 0 0.0 0.0 0.00 0.00 0.00 99 1009.0
20260504015915 94 0 0.0 0.0 0.00 0.00 0.00 99 1009.0
20260504014353 92 0 0.0 0.0 0.00 0.00 0.00 99 1009.0
20260504012831 91 0 0.0 0.0 0.00 0.00 0.00 99 1009.0
20260504011309 91 0 0.0 0.0 0.00 0.00 0.00 99 1009.0
20260504005747 90 0 0.0 0.0 0.00 0.00 0.00 99 1009.0
20260504004225 89 0 0.0 0.0 0.00 0.00 0.00 99 1009.0
20260504002703 88 0 0.0 0.0 0.00 0.00 0.00 99 1009.0
20260504001141 87 0 0.0 0.0 0.00 0.00 0.00 99 1008.0
20260503235619 87 0 0.0 0.0 0.00 0.00 0.00 99 1008.0
20260503234057 86 0 0.0 0.0 0.00 0.00 0.00 99 1008.0
20260503232535 86 0 0.0 0.0 0.00 0.00 0.00 99 1008.0
20260503231013 85 0 0.0 0.0 0.00 0.00 0.00 99 1008.0
20260503225451 86 0 0.0 0.0 0.00 0.00 0.00 99 1008.0
20260503223929 86 0 0.0 0.0 0.00 0.00 0.00 99 1007.0
20260503222407 86 0 0.0 0.0 0.00 0.00 0.00 99 1007.0
20260503220845 86 0 0.0 0.0 0.00 0.00 0.00 99 1007.0
20260503215323 86 0 0.0 0.0 0.00 0.00 0.00 99 1007.0
20260503213801 86 0 0.0 0.0 0.00 0.00 0.00 99 1006.0
20260503212239 86 0 0.0 0.0 0.00 0.00 0.00 99 1006.0
20260503210717 86 0 0.0 0.0 0.00 0.00 0.00 99 1006.0
20260503205155 86 0 0.0 0.0 0.00 0.00 0.00 99 1006.0
20260503203633 86 0 0.0 0.0 0.00 0.00 0.00 99 1006.0
20260503202111 87 0 0.0 0.0 0.00 0.00 0.00 99 1006.0
20260503200549 87 0 0.0 0.0 0.00 0.00 0.00 99 1006.0
20260503195027 88 0 0.0 0.0 0.00 0.00 0.00 99 1006.0
20260503193505 89 0 0.0 0.0 0.00 0.00 0.00 99 1006.0
20260503191943 89 0 0.0 0.0 0.00 0.00 0.00 99 1006.0
20260503190421 88 0 0.0 0.0 0.00 0.00 0.00 99 1006.0
20260503184859 89 0 0.0 0.0 0.00 0.00 0.00 99 1007.0